Regional Weather Roundup
Issued by NWS Upton, NY

Current Version | Previous Version | Text Only | Print | Product List | Glossary Off
Versions: 1 2 3 4 5 6 7 8 9 10 11 12 13 14 15 16 17 18 19 20 21 22 23 24 25 26 27
000 ASUS41 KOKX 270709 RWROKX REGIONAL WEATHER ROUNDUP NATIONAL WEATHER SERVICE NEW YORK NY 300 AM EDT THU APR 27 2017 NOTE: "FAIR" INDICATES FEW OR NO CLOUDS BELOW 12,000 FEET WITH NO SIGNIFICANT WEATHER AND/OR OBSTRUCTIONS TO VISIBILITY. NYZ071-072-176-178-NJZ106-104-270800- NEW YORK CITY METRO AREA CITY SKY/WX TMP DP RH WIND PRES REMARKS Central Park CLOUDY 61 58 90 CALM 29.87S FOG Wall St Helipt FOG 57 57 100 CALM 29.86S VSB 1/2 Bronx Bot Gard N/A 57 55 94 E1 29.88R LaGuardia APRT DRZL/FOG 58 56 93 CALM 29.84S VSB 1/2 Kennedy INTL DRZL/FOG 58 58 100 SW3 29.86S VSB 3/4 Breezy Point N/A 55 N/A N/A W3 N/A Newark/Liberty DRIZZLE 59 59 100 CALM 29.84F FOG Teterboro DRZL/FOG 61 59 93 CALM 29.84S VSB 1/2 $$ NYZ177-179-078>081-270800- LONG ISLAND NEW YORK CITY SKY/WX TMP DP RH WIND PRES REMARKS Jones Beach N/A 55 N/A N/A MISG N/A Matinecock PT N/A 55 N/A N/A S1 N/A Farmingdale CLOUDY 56 56 100 CALM 29.85S FOG MacArthur/ISP CLOUDY 56 56 100 W3 29.85R FOG Shirley FOG 55 55 100 CALM 29.86R VSB 1/2 Mt Sinai Harb N/A N/A N/A N/A CALM N/A Westhampton CLOUDY 55 53 93 W3 29.86R FOG East Hampton FOG 54 54 99 CALM 29.84R VSB 1 Montauk NOT AVBL $$ NYZ052-065-067-270800- HUDSON VALLEY CITY SKY/WX TMP DP RH WIND PRES REMARKS White Plains CLOUDY 58 56 93 CALM 29.84S FOG Larchmont Harb N/A 54 N/A N/A CALM N/A Croton O-T Hud N/A 57 N/A N/A MISG N/A Newburgh FOG 57 57 100 CALM 29.86S VSB 1 Montgomery CLOUDY 58 57 97 CALM 29.83F FOG Poughkeepsie CLOUDY 57 56 96 CALM 29.84S FOG Albany MOCLDY 59 54 83 SE3 29.83S $$ NJZ001-105-106-008-010-013-015-019>022-104-270800- NEW JERSEY CITY SKY/WX TMP DP RH WIND PRES REMARKS Newark/Liberty DRIZZLE 59 59 100 CALM 29.84F FOG Teterboro DRZL/FOG 61 59 93 CALM 29.84S VSB 1/2 Caldwell CLOUDY 58 58 100 CALM 29.85F FOG Somerville CLOUDY 60 58 92 CALM 29.83S Linden CLOUDY 59 58 96 CALM 29.85S FOG Sussex CLOUDY 56 56 100 CALM 29.85F FOG Andover N/A 57 56 96 CALM 29.85S Trenton CLOUDY 60 57 89 CALM 29.84S Millville CLOUDY 59 59 100 CALM 29.85S FOG Atlantic City CLOUDY 57 55 93 CALM 29.85S FOG Wrightstown CLOUDY 58 57 95 CALM 29.82F Toms River CLOUDY 57 56 96 CALM 29.86S Belmar CLOUDY 58 57 97 SW3 29.86S FOG $$ PAZ047>061-062-071-270800- EASTERN PENNSYLVANIA CITY SKY/WX TMP DP RH WIND PRES REMARKS Philadelphia CLOUDY 61 57 87 CALM 29.85S Allentown CLOUDY 62 55 77 S3 29.84F Scranton PTCLDY 58 55 90 E5 29.82S $$ CTZ002-004>006-009-010-012-RIZ004-006-007-MAZ004-011-015-270800- SOUTHERN NEW ENGLAND IN CT CITY SKY/WX TMP DP RH WIND PRES REMARKS Bradley INTL DRIZZLE 57 56 96 NW5 29.85S Hartford CLOUDY 58 57 97 NW5 29.85R Danbury CLOUDY 56 56 100 W3 29.86S Wtrbury/Oxford CLOUDY 55 54 94 CALM 29.86S VSB 1/2 Bridgeport CLOUDY 56 53 90 SW5 29.85R Meriden CLOUDY 59 57 93 NW3 29.85R FOG New Haven CLOUDY 57 56 96 CALM 29.85R FOG Chester FOG 57 57 100 CALM 29.84S VSB 1/2 Groton FOG 52 52 100 SW3 29.83R VSB 1/4 Wilimantic CLOUDY 59 57 93 N3 29.84S IN RI CITY SKY/WX TMP DP RH WIND PRES REMARKS Providence CLOUDY 56 56 100 NE7 29.85R Block Island FOG 49 49 100 NE6 29.83S VSB 1/4 Westerly FOG 55 55 100 CALM 29.84R VSB 1/4 IN MA CITY SKY/WX TMP DP RH WIND PRES REMARKS Boston FOG 51 51 100 N3 29.86F VSB 1/4 Worcester FOG 52 51 97 NE6 29.85S VSB 1/4 Westfield CLOUDY 56 56 100 N5 29.85R Provincetown CLOUDY 52 52 100 NW3 29.86S FOG Nantucket FOG 52 51 97 E3 29.85R VSB 3/4 $$ ANZ330-335-338-340-345-350-353-355-270800- COASTAL MARINE OBSERVATIONS STATION/POSITION TIME SKY/WX TEMP WIND PRES VSBY WAVE AIR SEA DIR/SP/G HT/PER (UTC) (F) (DEG/KT/KT) (MB) (MI) (FT/S) NY HARB ENTRANCE 0550 52 49 260/ 2/ 2 1011.0 6/11 20 S FIRE ISLAND 0650 50 49 340/ 2/ 4 1010.5 7/10 GREAT SOUTH BAY 0630 54 57 280/ 6/ 6 N/A 23 SSW MONTAUK P 0550 46 45 1010.6 8/10 15 E BARNEGAT LI 0630 51 N/A 6/10 HUDSON CANYON 0550 51 51 250/ 4/ 8 1010.7 9/10 KINGS POINT 0648 53 49 CALM 1010.6 EXECUTION ROCKS NOT AVBL CENTRAL LI SOUND 0630 49 CALM / 2 N/A 0 EASTERN LI SOUND NOT AVBL ROBBINS REEF 0648 58 250/ 4/ 4 1010.9 $$ >>>>>>>>>>>>>>>>>>>>>>>>>>>> KEY <<<<<<<<<<<<<<<<<<<<<<<<<<< > < > SKY/WX - Sky Condition/Present Weather < > TMP - Temperature in Fahrenheit < > DP - Dew Point in Fahrenheit < > RH - Relative Humidity in Percent < > WIND - Direction (from) and Speed in MPH < > PRES - Mean Sea Level Pressure (inches of Hg) < > WCI - Wind Chill Index < > VSB - VISIBILITY IN MILES < > HX - HEAT INDEX < > TC - TEMPERATURE IN CELSIUS < > VRB - VARIABLE WIND DIRECTION < > < >>>>>>>>>>>>>>>>>>>>>>>>>>>> KEY <<<<<<<<<<<<<<<<<<<<<<<<<<<

USA.gov is the U.S. government's official web portal to all federal, state and local government web resources and services.